Temp
11 11 11 13 13 14 14 14 15 17 18 16 15 15 15 18 18 18 18 18 18 18 18 18 19 18 18 17 17 16 16 16 15 14 14 14 14 14 13 12 12 13 13 13
11 10 13 14 14 14 14 13 13 15 16 15 14 13 14 16 17 18 18 18 18 18 18 18 18 17 16 17 16 16 16 15 15 14 14 13 13 13 13 12 12 13 12 13
10 13 13 13 13 13 13 13 13 14 15 14 13 13 14 15 16 17 18 18 18 17 17 17 17 16 16 15 15 15 15 15 14 13 13 13 13 12 12 12 12 12 12 12
11 13 13 12 13 13 12 14 14 13 13 11 14 10 14 15 17 16 17 17 17 17 17 16 16 15 14 14 13 13 14 14 13 13 12 12 12 12 12 12 12 12 11 11
11 12 12 12 13 13 13 14 14 13 12 11 12 10 13 14 14 15 16 17 17 17 15 14 14 13 12 12 12 12 12 12 12 12 11 11 11 12 12 12 11 11 11 11
11 12 12 13 13 13 13 12 12 12 11 10 12 11 12 14 15 15 16 16 15 14 13 13 11 10 10 10 10 10 10 10 10 9 9 10 11 11 11 11 11 10 10 10
10 11 11 12 12 12 12 11 9 8 7 8 12 11 13 14 16 16 15 14 13 13 12 11 9 9 8 9 9 9 9 10 8 7 8 8 9 10 10 10 10 9 9 9
8 7 10 10 11 11 11 11 9 8 8 9 11 10 12 15 17 17 16 14 13 12 10 9 7 7 8 8 8 8 8 9 9 8 7 7 8 8 9 9 9 9 9 9
9 9 11 11 12 12 10 9 12 9 7 7 10 13 13 13 13 12 12 12 11 10 8 7 6 7 7 8 8 8 7 8 8 8 8 8 8 8 9 9 9 9 9 9
11 9 10 10 11 11 11 11 9 8 8 7 9 11 12 12 12 11 10 11 11 9 8 7 7 6 7 7 7 7 7 7 8 8 8 8 8 9 9 9 9 9 9 9
10 10 9 9 9 10 10 9 10 10 8 9 10 10 15 15 13 12 11 12 11 10 8 7 6 6 6 6 6 7 7 7 7 8 8 8 8 9 9 9 9 9 9 9
9 9 7 8 10 11 11 10 10 9 8 8 9 11 14 13 14 14 13 12 11 10 8 6 5 5 6 6 6 6 7 7 7 8 8 8 8 8 8 8 9 8 8 9
9 7 7 7 8 9 9 10 10 10 6 9 8 10 13 13 14 13 13 12 11 9 7 5 5 4 5 6 6 7 7 7 7 7 7 8 8 8 8 8 8 8 8 8
10 8 8 8 10 8 8 9 10 9 8 8 9 10 12 12 11 11 11 12 10 8 7 6 5 5 4 5 6 6 6 6 6 6 6 6 7 7 7 8 7 7 7 7
8 6 7 8 9 9 10 9 9 9 9 8 10 9 11 11 11 11 12 11 9 8 7 6 6 5 3 4 5 6 6 6 6 5 6 6 6 6 6 6 6 5 5 5
7 5 6 5 8 8 8 9 9 9 9 9 9 9 11 12 13 13 12 11 9 7 7 7 6 4 3 4 5 5 5 5 5 5 5 6 6 5 4 4 4 4 3 3
7 6 6 6 6 6 6 7 8 9 10 10 9 10 11 11 11 12 12 12 9 9 9 8 7 5 4 4 4 4 4 4 4 4 4 4 4 3 2 2 2 2 2 2
6 6 6 6 4 5 8 9 9 9 9 10 10 11 11 12 12 12 13 13 12 10 10 9 6 5 4 3 3 3 2 2 3 3 3 2 2 2 1 1 1 1 0 0
4 5 6 5 5 6 7 7 8 8 8 10 9 10 11 11 11 11 12 12 12 12 10 9 8 5 3 2 1 1 1 1 1 1 1 1 1 -0 -1 -1 -1 -1 -1 -1
3 4 5 5 5 4 8 9 10 9 7 10 10 9 9 10 8 10 11 11 11 11 10 8 6 4 3 2 0 -0 -0 -0 -0 -0 -0 -0 -1 -1 -2 -2 -2 -2 -2 -2
3 3 3 4 5 4 5 7 10 5 6 9 9 9 9 8 10 11 10 10 10 9 9 7 5 4 2 0 -1 -1 -2 -2 -2 -2 -3 -5 -3 -3 -3 -3 -4 -3 -3 -4
3 2 1 3 3 3 7 8 6 7 8 9 7 6 7 8 8 9 10 8 8 8 6 5 4 1 -0 -1 -2 -3 -3 -3 -4 -4 -6 -4 -5 -4 -5 -4 -4 -4 -4 -5
2 3 2 3 3 5 7 7 9 7 7 8 8 8 7 7 7 6 7 6 4 5 5 2 1 -0 -2 -3 -3 -4 -4 -5 -5 -6 -6 -6 -6 -7 -5 -4 -5 -6 -6 -5
4 5 5 4 5 4 7 7 7 8 8 9 8 8 7 7 7 6 4 4 2 1 -0 -1 -2 -3 -3 -5 -6 -6 -6 -6 -7 -7 -7 -7 -7 -7 -6 -6 -6 -7 -7 -7
3 3 4 4 3 5 7 7 6 5 5 5 5 4 3 3 5 4 3 1 0 -1 -3 -3 -4 -5 -6 -7 -7 -7 -7 -8 -8 -8 -8 -8 -7 -7 -7 -7 -8 -8 -9 -9
4 4 3 3 4 4 5 3 4 3 2 1 2 2 1 -1 -0 2 -1 -2 -3 -3 -5 -5 -6 -7 -7 -7 -8 -8 -9 -10 -9 -9 -8 -8 -7 -7 -8 -9 -9 -10 -10 -10
Height
1519 1523 1520 1520 1521 1523 1524 1526 1526 1519 1517 1522 1524 1523 1520 1519 1517 1516 1517 1518 1519 1520 1522 1526 1524 1519 1518 1519 1520 1519 1517 1517 1517 1516 1516 1515 1514 1516 1517 1516 1517 1517 1518 1521
1518 1516 1516 1517 1517 1521 1524 1527 1528 1520 1517 1522 1524 1524 1518 1516 1512 1511 1511 1512 1514 1516 1518 1521 1514 1514 1515 1515 1515 1513 1511 1509 1509 1509 1510 1511 1510 1511 1512 1514 1513 1512 1512 1514
1512 1506 1512 1515 1517 1520 1521 1525 1528 1527 1520 1521 1525 1519 1511 1500 1499 1503 1504 1507 1509 1511 1513 1513 1509 1509 1511 1511 1510 1508 1506 1503 1501 1501 1503 1506 1508 1509 1510 1509 1509 1508 1508 1509
1510 1508 1508 1512 1513 1515 1522 1520 1523 1525 1529 1537 1522 1530 1502 1495 1492 1493 1496 1500 1502 1506 1507 1506 1505 1506 1507 1507 1506 1504 1502 1500 1498 1496 1498 1501 1504 1506 1508 1507 1505 1506 1506 1507
1500 1501 1505 1508 1510 1511 1516 1516 1518 1522 1528 1533 1530 1536 1501 1489 1493 1491 1490 1492 1496 1499 1500 1501 1503 1504 1504 1504 1503 1501 1499 1497 1494 1494 1495 1498 1501 1502 1502 1503 1502 1502 1503 1503
1498 1499 1500 1502 1507 1509 1514 1520 1522 1523 1529 1534 1525 1529 1500 1494 1488 1484 1485 1488 1491 1494 1496 1498 1501 1501 1501 1502 1501 1499 1496 1495 1492 1491 1493 1495 1497 1498 1499 1499 1499 1499 1500 1500
1500 1499 1500 1501 1505 1509 1513 1521 1536 1545 1545 1533 1509 1520 1490 1482 1478 1477 1479 1485 1488 1491 1494 1496 1498 1498 1499 1499 1499 1498 1496 1493 1492 1491 1491 1492 1493 1494 1495 1496 1497 1497 1498 1497
1498 1507 1496 1498 1500 1504 1509 1514 1524 1532 1530 1520 1508 1509 1490 1474 1473 1475 1478 1482 1485 1488 1491 1493 1495 1495 1495 1496 1496 1496 1495 1493 1491 1490 1490 1490 1491 1492 1493 1494 1494 1495 1495 1494
1488 1491 1484 1489 1492 1497 1506 1510 1506 1516 1522 1525 1506 1486 1479 1473 1472 1474 1477 1480 1483 1486 1488 1491 1492 1492 1493 1493 1494 1494 1494 1492 1490 1489 1489 1489 1489 1490 1492 1493 1493 1493 1493 1494
1476 1489 1483 1490 1494 1493 1496 1500 1513 1518 1520 1529 1502 1494 1480 1472 1473 1473 1475 1476 1480 1483 1484 1486 1488 1489 1491 1492 1492 1492 1492 1492 1491 1489 1488 1488 1488 1490 1491 1492 1493 1493 1492 1492
1474 1480 1491 1490 1486 1487 1495 1500 1499 1499 1507 1502 1494 1484 1458 1460 1460 1465 1468 1471 1475 1477 1478 1481 1483 1486 1488 1489 1490 1490 1491 1491 1490 1490 1489 1488 1489 1489 1490 1491 1491 1491 1491 1490
1470 1477 1490 1485 1481 1481 1483 1485 1489 1492 1498 1498 1492 1474 1458 1459 1461 1461 1465 1468 1471 1473 1475 1479 1482 1484 1485 1486 1487 1487 1487 1488 1488 1488 1488 1488 1487 1488 1488 1488 1488 1488 1489 1489
1465 1476 1486 1488 1487 1480 1481 1482 1481 1484 1495 1485 1490 1468 1457 1460 1460 1461 1463 1466 1469 1471 1474 1477 1478 1479 1480 1481 1482 1482 1484 1485 1485 1485 1486 1486 1486 1486 1486 1485 1485 1485 1485 1485
1459 1464 1466 1464 1460 1471 1479 1475 1477 1481 1487 1478 1477 1461 1458 1459 1460 1460 1462 1463 1464 1466 1469 1471 1472 1474 1475 1475 1476 1478 1479 1481 1481 1481 1482 1483 1483 1483 1483 1482 1482 1481 1480 1480
1456 1463 1462 1458 1460 1461 1462 1466 1470 1473 1467 1472 1458 1467 1446 1452 1458 1457 1456 1457 1460 1460 1462 1464 1465 1467 1468 1468 1469 1472 1475 1477 1477 1478 1478 1479 1479 1479 1479 1478 1478 1478 1478 1477
1451 1461 1461 1464 1458 1460 1460 1461 1461 1459 1458 1460 1456 1454 1440 1448 1449 1448 1449 1448 1450 1453 1455 1455 1457 1459 1459 1461 1464 1466 1469 1470 1472 1474 1474 1474 1474 1474 1475 1474 1474 1474 1474 1474
1448 1454 1460 1459 1456 1461 1466 1454 1449 1452 1449 1448 1451 1439 1443 1440 1436 1439 1438 1441 1439 1440 1442 1443 1443 1447 1450 1452 1455 1458 1461 1463 1465 1468 1469 1470 1471 1471 1471 1471 1471 1471 1471 1471
1443 1449 1455 1452 1461 1455 1437 1435 1438 1438 1436 1436 1437 1435 1428 1425 1426 1431 1429 1430 1431 1430 1430 1431 1435 1438 1441 1444 1448 1451 1455 1457 1460 1462 1463 1463 1464 1466 1468 1468 1467 1467 1467 1468
1440 1444 1447 1448 1443 1438 1437 1426 1425 1428 1425 1427 1428 1419 1415 1420 1425 1420 1416 1420 1422 1420 1421 1422 1425 1428 1431 1436 1441 1445 1447 1450 1452 1454 1456 1458 1459 1461 1463 1464 1464 1464 1464 1462
1441 1442 1446 1443 1439 1438 1416 1411 1415 1419 1425 1409 1412 1417 1414 1411 1420 1408 1399 1410 1409 1412 1413 1414 1416 1419 1424 1429 1434 1438 1440 1442 1444 1447 1450 1452 1454 1454 1458 1460 1459 1460 1459 1459
1436 1441 1438 1434 1428 1426 1412 1406 1408 1429 1416 1402 1406 1409 1407 1409 1407 1400 1402 1402 1402 1402 1402 1405 1408 1412 1417 1423 1427 1431 1434 1436 1439 1441 1443 1446 1449 1452 1452 1455 1456 1455 1454 1458
1421 1430 1435 1431 1429 1424 1401 1405 1409 1396 1395 1394 1396 1399 1400 1401 1401 1400 1396 1394 1395 1396 1397 1400 1403 1408 1412 1417 1423 1426 1429 1432 1434 1435 1439 1443 1444 1448 1449 1449 1449 1451 1453 1453
1421 1408 1412 1411 1407 1396 1393 1394 1393 1395 1395 1391 1392 1390 1392 1395 1395 1393 1393 1391 1392 1392 1392 1395 1399 1404 1408 1412 1416 1421 1422 1427 1429 1430 1435 1438 1441 1444 1444 1443 1445 1448 1449 1448
1398 1397 1399 1401 1394 1392 1390 1390 1389 1389 1391 1389 1387 1386 1386 1387 1388 1385 1387 1390 1387 1389 1391 1394 1397 1400 1403 1406 1410 1414 1418 1421 1425 1428 1432 1434 1436 1438 1439 1439 1442 1443 1445 1444
1394 1394 1392 1389 1387 1386 1385 1383 1382 1383 1383 1382 1381 1381 1381 1384 1378 1378 1377 1382 1383 1383 1386 1389 1393 1397 1400 1401 1406 1409 1414 1418 1422 1425 1427 1429 1431 1432 1435 1436 1438 1440 1441 1440
1386 1385 1389 1384 1381 1380 1378 1378 1376 1376 1376 1375 1373 1371 1373 1379 1376 1356 1372 1378 1378 1378 1381 1383 1387 1391 1394 1397 1402 1407 1411 1414 1419 1422 1424 1425 1426 1427 1431 1433 1435 1436 1437 1437
Wind_Speed
13 5 12 11 12 9 10 9 8 7 8 6 8 9 10 18 20 19 24 23 24 25 25 21 21 20 18 20 24 24 25 25 24 22 24 28 29 27 28 30 27 27 25 22
6 14 10 9 8 11 12 12 10 7 5 2 5 11 15 18 22 26 25 26 24 25 23 20 15 15 15 21 22 19 20 22 21 21 23 24 24 23 22 27 27 27 26 24
15 1 19 13 12 13 13 14 8 7 6 5 4 14 19 17 34 28 28 26 25 24 22 19 16 18 20 16 15 15 15 15 15 17 18 19 21 19 16 14 16 15 15 14
13 21 11 15 14 14 15 9 13 11 6 5 6 6 12 7 3 9 24 29 27 20 19 17 14 16 14 13 12 12 14 14 14 14 15 14 18 18 17 16 15 15 12 9
8 12 19 13 15 8 6 5 9 8 6 6 12 6 5 11 9 8 11 15 21 18 13 11 12 11 12 11 9 10 12 12 11 10 11 14 14 16 16 16 14 13 12 11
12 2 7 16 6 9 6 3 3 1 2 8 12 10 7 10 10 8 8 13 15 12 10 9 9 10 11 8 7 7 7 7 5 2 4 9 14 17 17 18 17 16 15 16
10 13 3 3 11 6 5 8 2 2 2 6 9 12 15 7 4 0 13 16 13 10 8 9 10 10 7 5 5 4 4 2 1 2 5 9 13 16 16 16 14 14 13 12
10 6 16 9 9 10 13 13 5 7 5 3 13 9 6 6 13 14 10 10 11 10 11 13 13 9 7 7 6 4 3 2 3 5 7 7 8 9 9 10 10 9 9 7
9 7 6 14 7 16 10 17 13 6 2 2 5 6 8 6 5 8 11 13 13 11 13 12 10 9 9 9 8 7 6 5 5 6 7 8 8 8 8 7 6 5 5 4
2 1 9 7 9 9 5 6 9 3 4 4 6 8 10 4 7 8 9 17 14 17 14 12 11 12 12 10 9 8 7 6 5 6 7 8 8 7 7 6 5 4 2 0
5 2 2 8 10 15 10 6 6 5 6 4 4 5 3 6 12 14 13 18 17 19 17 15 13 14 14 13 12 10 9 8 8 7 7 6 6 5 5 4 3 3 2 2
9 4 5 11 5 12 16 16 15 7 8 5 12 17 5 7 4 8 14 14 16 19 18 16 17 16 15 15 14 13 13 12 10 8 7 6 5 5 4 3 3 3 4 4
13 5 3 2 4 7 9 15 18 17 1 14 10 13 11 9 3 6 10 15 17 18 18 18 20 20 19 19 19 18 16 14 12 11 9 8 7 6 5 5 5 5 4 4
21 5 13 17 13 8 10 14 19 18 11 18 17 25 18 13 6 8 12 19 23 23 24 25 26 24 24 24 24 22 20 18 16 13 11 8 7 6 7 7 8 8 7 7
10 8 13 17 13 10 10 16 20 19 24 17 23 18 26 19 12 13 23 26 25 29 30 30 31 30 30 29 28 26 23 20 18 15 13 13 12 11 11 11 10 8 7 6
7 5 5 8 15 16 18 16 13 22 23 19 24 25 26 24 21 20 26 32 34 31 34 36 35 34 37 35 33 29 27 24 21 19 17 15 15 14 13 11 10 9 7 5
9 6 6 13 11 12 13 21 23 19 18 20 21 26 20 22 23 27 30 28 34 40 39 40 42 41 42 41 37 35 31 26 23 19 18 16 14 12 12 11 10 9 7 4
8 11 7 10 2 16 12 9 15 25 24 23 22 21 24 32 38 30 29 26 30 39 43 43 41 42 43 42 38 36 31 26 24 22 18 16 15 15 14 12 11 9 7 4
1 3 7 9 13 13 9 11 16 13 23 19 22 28 37 38 30 31 46 41 36 38 40 46 44 44 45 43 40 35 31 28 25 21 19 17 17 15 14 12 11 9 6 4
10 4 7 5 9 12 18 18 23 3 11 22 21 19 23 36 14 17 50 32 34 35 34 40 43 45 45 42 40 35 31 29 26 24 21 19 18 16 14 12 10 9 6 4
9 8 16 13 10 4 9 7 1 7 10 4 6 11 27 14 18 40 33 24 20 23 33 39 42 45 42 38 37 35 32 30 27 25 22 18 17 16 15 13 10 8 7 6
11 8 6 7 8 14 15 2 9 5 4 10 11 10 15 21 25 24 26 21 20 24 31 37 40 40 36 34 34 34 30 28 24 21 16 18 16 16 14 12 10 9 8 6
6 7 4 7 6 4 8 11 21 8 13 20 21 25 22 21 23 24 22 21 20 26 32 35 36 34 32 33 34 33 31 26 22 17 19 19 17 15 13 12 10 9 8 7
5 9 11 12 12 14 23 25 24 26 25 28 29 31 26 26 23 23 25 25 23 26 30 32 32 32 32 32 32 30 27 23 19 20 20 19 16 14 12 11 10 8 7 6
8 4 14 14 7 11 21 28 23 24 24 27 29 29 27 27 23 22 24 29 28 28 30 30 30 30 31 30 30 27 24 21 21 21 20 18 16 13 12 10 9 8 8 7
14 13 7 10 8 12 16 17 14 14 16 19 24 27 26 25 24 13 22 29 29 27 29 30 31 30 31 31 28 24 21 20 20 19 18 17 15 13 12 11 10 9 8 8
Wind_Direction
195 199 206 197 215 233 268 277 285 245 245 179 227 261 274 275 274 228 229 242 252 261 271 277 270 251 254 264 276 277 275 273 266 259 259 258 261 253 249 256 260 265 260 247
194 227 217 222 220 222 242 259 265 290 313 98 294 273 274 267 262 258 257 255 258 262 270 278 244 254 269 278 285 283 283 279 270 255 251 257 263 263 260 253 265 269 264 254
216 240 209 233 220 231 231 240 248 259 292 209 275 271 252 249 242 246 249 248 251 259 267 263 267 273 280 282 291 293 292 284 271 251 241 243 250 243 241 253 262 266 271 266
228 233 197 219 227 210 232 213 236 248 242 246 198 283 297 277 247 221 226 241 241 246 242 236 246 265 276 291 294 295 295 295 278 264 235 230 241 246 250 250 244 245 249 263
205 196 222 219 226 221 237 294 254 225 251 271 258 279 264 231 258 243 209 215 223 217 206 229 252 261 278 283 286 292 299 300 289 256 230 218 221 231 232 231 223 223 232 231
238 27 217 227 225 217 164 87 46 354 259 246 229 230 228 235 212 218 205 158 162 182 203 231 247 261 269 278 288 296 306 315 314 299 211 210 221 229 231 234 239 243 245 248
218 223 183 229 202 171 222 162 181 222 216 236 203 208 243 302 328 34 187 155 169 189 213 231 243 259 259 267 273 279 289 312 287 164 174 199 218 231 238 240 243 245 245 251
185 211 211 169 218 190 203 201 177 199 199 231 206 235 242 208 250 202 174 174 200 201 210 226 238 246 242 237 241 246 245 206 160 167 178 190 202 208 216 223 223 228 230 226
184 230 156 176 186 176 189 215 214 326 150 128 241 261 304 167 170 139 150 167 188 201 218 226 233 240 236 232 229 227 219 196 177 161 148 153 155 159 164 168 169 169 173 179
167 120 182 179 193 233 187 154 202 208 241 232 240 246 239 203 186 194 193 195 194 197 213 224 229 231 232 228 225 220 215 205 183 171 162 157 153 151 149 150 158 161 163 238
154 131 208 147 199 189 200 210 215 185 214 213 248 235 196 238 214 191 204 210 198 208 220 221 221 226 224 222 220 217 212 198 192 183 170 162 161 163 168 181 199 218 227 243
189 155 173 207 199 223 217 214 205 206 220 247 257 261 43 99 94 168 187 202 203 221 219 213 218 227 220 218 217 214 212 208 205 198 194 194 202 210 218 222 229 238 261 272
181 219 157 215 226 229 218 225 227 232 175 221 224 256 209 248 6 141 174 185 207 217 211 212 220 223 222 220 220 218 216 213 214 215 214 214 219 223 235 245 242 236 243 263
164 190 212 225 224 140 207 218 223 226 239 244 241 256 261 266 254 191 195 211 218 216 216 220 223 226 223 222 221 220 218 217 217 216 217 218 225 237 241 241 236 233 234 244
154 214 229 242 260 269 227 212 218 229 232 230 250 244 258 258 261 229 215 220 213 215 217 221 228 224 222 224 222 221 220 220 218 219 225 233 235 239 243 242 240 239 230 221
171 232 186 256 250 244 256 263 250 232 244 255 253 258 259 273 273 247 241 218 214 210 224 232 229 226 224 225 224 222 221 219 224 229 230 230 233 233 231 229 224 220 211 196
180 203 186 244 237 237 253 240 244 254 245 237 246 253 265 262 257 259 258 249 214 222 231 234 232 226 226 226 224 221 220 220 223 225 231 235 238 235 227 224 219 212 203 198
193 198 212 245 262 246 243 242 226 234 241 244 252 259 256 256 262 270 271 253 239 231 235 234 227 229 228 226 222 219 217 219 222 224 225 228 231 227 224 219 214 205 197 192
176 153 232 235 239 259 298 244 221 223 244 240 243 247 255 267 269 268 263 257 257 258 244 238 235 225 225 223 219 217 215 217 220 223 226 227 228 223 221 219 212 208 203 190
188 176 214 202 238 242 243 242 243 247 248 241 244 250 253 260 262 262 264 265 262 258 250 225 221 222 224 222 219 216 214 214 215 219 224 230 229 222 219 217 211 210 208 206
199 214 223 231 244 265 266 214 304 185 239 215 228 285 265 266 255 265 266 270 260 244 229 220 219 221 220 220 217 214 214 216 222 227 224 220 221 218 214 211 213 218 221 224
184 179 203 221 232 247 240 77 203 228 243 255 296 301 310 311 311 295 277 257 237 230 215 216 215 213 215 217 215 215 217 223 225 223 218 218 214 218 210 212 221 227 231 237
243 204 200 183 211 220 229 237 245 253 265 278 285 292 295 295 296 301 282 259 230 216 210 209 211 211 212 214 216 218 220 221 219 212 211 210 210 209 216 221 225 227 239 255
259 227 242 256 260 256 263 268 266 257 261 268 274 278 277 276 279 281 275 254 233 219 214 214 213 211 210 210 213 218 219 217 210 206 206 207 210 215 220 221 229 239 253 267
234 200 239 252 265 280 271 260 266 265 268 269 270 273 274 269 257 262 259 251 239 226 221 218 218 214 208 208 211 213 211 204 203 206 206 208 211 216 224 225 233 242 251 263
229 241 236 247 257 233 246 255 259 283 289 280 272 274 273 261 246 230 255 246 242 230 224 217 213 212 209 209 209 206 201 199 203 206 207 210 213 218 223 226 230 240 251 262